Pierre, SD

1:35 PM CDT on June 28, 2017 (GMT -0500)
Pierre Regional

Weather History for KPIR - October, 2012

Change the Weather History Date:

Tuesday, October 2, 2012

  Actual Average Record
Temperature  
Mean Temperature 63 °F 55 °F  
Max Temperature 86 °F 68 °F 98 °F (1997)
Min Temperature 39 °F 42 °F 25 °F (1999)
Degree Days  
Heating Degree Days 2 11  
Month to date heating degree days 13 21  
Since 1 July heating degree days 121 192  
Cooling Degree Days 0 1  
Month to date cooling degree days 0 2  
Year to date cooling degree days 1112 865  
Growing Degree Days 12 (Base 50)    
Moisture  
Dew Point 31 °F    
Average Humidity 36    
Maximum Humidity 57    
Minimum Humidity 15    
Precipitation  
Precipitation 0.00 in 0.08 in 0.95 in (1941)
Month to date precipitation T 0.15  
Year to date precipitation 10.11 17.20  
Snow  
Snow 0.00 in 0.00 in 1.50 in (1999)
Month to date snowfall 0.0 0.0  
Since 1 July snowfall 0.0 0.0  
Snow Depth 0.00 in    
Sea Level Pressure  
Sea Level Pressure 29.78 in    
Wind  
Wind Speed 10 mph (South)    
Max Wind Speed 20 mph    
Max Gust Speed 24 mph    
Visibility 10 miles    
Events      
T = Trace of Precipitation, MM = Missing Value Source: NWS Daily Summary

Daily Weather History Graph

Daily Weather History Graph

Search for Another Location

Airport or City:

Trip Planner

Search our weather history database for the weather conditions in past years. The results will help you decide how hot, cold, wet, or windy it might be!

Date:

Astronomy

Oct. 02, 2012 Rise Set
Actual Time 7:40 AM CDT 7:19 PM CDT
Civil Twilight 7:11 AM CDT 7:47 PM CDT
Nautical Twilight 6:38 AM CDT 8:21 PM CDT
Astronomical Twilight 6:04 AM CDT 8:55 PM CDT
Moon 8:24 PM CDT (10/2) 10:17 AM CDT (10/2)
Length of Visible Light 12h 36m
Length of Day
11h 38m
Waning Gibbous, 94% of the Moon is Illuminated
Oct 2
Waning Gibbous
Oct 8
Last Quarter
Oct 15
New
Oct 21
First Quarter
Oct 29
Full

Hourly Weather History & Observations

Time (CDT) Temp. Windchill Dew Point Humidity Pressure Visibility Wind Dir Wind Speed Gust Speed Precip Events Conditions
12:53 AM 39.9 °F - 25.0 °F 55% 29.99 in 10.0 mi Calm Calm - N/A   Clear
1:53 AM 44.1 °F - 27.0 °F 51% 29.97 in 10.0 mi Calm Calm - N/A   Clear
2:53 AM 42.1 °F 37.7 °F 28.9 °F 60% 29.95 in 10.0 mi SSE 6.9 mph - N/A   Clear
4:53 AM 48.9 °F - 28.0 °F 44% 29.91 in 10.0 mi South 11.5 mph - N/A   Clear
5:53 AM 51.1 °F - 28.0 °F 41% 29.88 in 10.0 mi South 17.3 mph 23.0 mph N/A   Clear
6:53 AM 50.0 °F - 28.9 °F 44% 29.87 in 10.0 mi SSE 10.4 mph 20.7 mph N/A   Clear
7:53 AM 51.1 °F - 30.0 °F 44% 29.84 in 10.0 mi South 17.3 mph 23.0 mph N/A   Clear
8:53 AM 51.1 °F - 30.9 °F 46% 29.83 in 10.0 mi South 11.5 mph - N/A   Clear
9:53 AM 57.0 °F - 32.0 °F 39% 29.81 in 10.0 mi SSE 11.5 mph - N/A   Clear
10:53 AM 64.9 °F - 32.0 °F 29% 29.78 in 10.0 mi South 13.8 mph - N/A   Clear
11:53 AM 70.0 °F - 32.0 °F 25% 29.75 in 10.0 mi South 13.8 mph - N/A   Clear
12:53 PM 73.9 °F - 32.0 °F 21% 29.73 in 10.0 mi SSE 12.7 mph - N/A   Clear
1:53 PM 80.1 °F - 33.1 °F 18% 29.69 in 10.0 mi South 11.5 mph - N/A   Clear
2:53 PM 82.0 °F - 32.0 °F 16% 29.67 in 10.0 mi SW 8.1 mph - N/A   Clear
3:53 PM 84.0 °F - 33.1 °F 16% 29.65 in 10.0 mi SW 5.8 mph - N/A   Clear
4:53 PM 84.9 °F - 32.0 °F 15% 29.64 in 10.0 mi WNW 5.8 mph - N/A   Clear
5:53 PM 84.9 °F - 32.0 °F 15% 29.64 in 10.0 mi NNW 4.6 mph - N/A   Clear
7:53 PM 66.9 °F - 33.1 °F 28% 29.69 in 10.0 mi North 9.2 mph - N/A   Clear
9:53 PM 57.0 °F - 32.0 °F 39% 29.72 in 10.0 mi ENE 9.2 mph - N/A   Clear
10:53 PM 55.0 °F - 33.1 °F 43% 29.71 in 10.0 mi NE 11.5 mph - N/A   Clear
11:53 PM 55.9 °F - 33.1 °F 42% 29.71 in 10.0 mi NE 5.8 mph - N/A   Clear